Location: Cambroso
(45.2833°N, 12.0850°E)
Time: 11:04:21
(UTC+00:00)

Meteor 2-19 Rocket - Pass Details

Date: 21 January 2021
Orbit: 935 x 959 km, 82.5° (Epoch: 28 February)

Event Time Altitude Azimuth Distance (km) Brightness Sun altitude
Rises 18:08:28 0° 173° (S) 3,624 7.5 -21.7°
Reaches altitude 10° 18:10:59 10° 169° (S) 2,684 6.7 -22.2°
Maximum altitude 18:16:58 56° 93° (E) 1,130 4.4 -23.2°
Enters shadow 18:19:56 30° 29° (NNE) 1,661 5.4 -23.7°
Exits shadow 18:25:39 - 13° (NNE) 3,699 7.4 -24.7°
